[[{"header":{"parameterUnit":"m.s-1","parameterCategory":1,"la1":30.2991,"la2":30.254,"lo1":-89.0895,"lo2":-89.0444,"dy":0.0017,"dx":0.0017,"nx":28,"ny":28,"refTime":"2026-02-16T09:00:00:Z","depth":0,"parameterNumber":2,"parameterNumberName":"U-component_of_WINDS"},"data":[0,0,0,0,0,0,0,0,0,0,0,0,0,0,0,0,0,0,0,0,0,0,0,0,0,0,0,0,0,0,0,0,0,0,0,0,0,0,0,0,0,0,0,0,0,0,0,0,0,0,0,0,0,0,0,0,0,0,-0.1933,-0.1933,0,-0.1914,-0.1914,-0.1914,-0.1886,-0.1886,-0.1885,-0.1885,-0.1866,-0.1865,-0.1865,0,0,0,0,0,0,0,0,0,0,0,0,0,-0.1946,-0.1946,-0.1933,-0.1933,-0.1933,-0.1914,-0.1914,-0.1914,-0.1886,-0.1886,-0.1885,-0.1884,-0.1866,-0.1865,-0.1865,0,0,0,0,0,0,0,0,0,0,0,0,0,-0.1935,-0.1946,-0.1933,-0.1917,-0.1915,-0.1914,-0.1914,-0.1914,-0.1886,-0.1886,-0.1885,-0.1884,-0.1866,-0.1865,-0.1865,-0.1879,0,0,-0.1865,-0.1865,0,0,0,0,0,0,0,0,-0.1936,-0.1935,-0.192,-0.1918,-0.1916,-0.1902,-0.1911,-0.1902,-0.1886,-0.1897,-0.1885,-0.1884,-0.1878,-0.1877,-0.1875,-0.1878,-0.1877,-0.1865,-0.1865,-0.1865,-0.1865,0,0,0,0,0,0,0,-0.1936,-0.1935,-0.1926,-0.1919,-0.1917,-0.191,-0.1908,-0.1909,-0.1892,-0.1896,-0.1894,-0.1892,-0.1877,-0.1875,-0.1874,-0.1877,-0.1865,-0.1865,-0.1865,-0.1865,-0.189,-0.189,0,0,0,0,0,0,-0.194,-0.1936,-0.1926,-0.1925,-0.1924,-0.1911,-0.1908,-0.1907,-0.1892,-0.1889,-0.1893,-0.1891,-0.1876,-0.1874,-0.1874,-0.1888,-0.1865,-0.1865,-0.1865,-0.1889,-0.189,-0.1891,0,0,0,0,0,0,-0.194,-0.1939,-0.1927,-0.193,-0.1928,-0.1911,-0.191,-0.1907,-0.1905,-0.1889,-0.1886,-0.1894,-0.1875,-0.1874,-0.1878,-0.1887,-0.1865,-0.1865,-0.1888,-0.1889,-0.189,-0.1918,0,0,0,0,0,0,-0.1941,-0.1939,-0.1945,-0.193,-0.1928,-0.1932,-0.1911,-0.1907,-0.1905,-0.1902,-0.189,-0.1887,-0.1874,-0.1878,-0.1878,-0.1887,-0.1865,-0.1887,-0.1889,-0.189,-0.1916,-0.192,-0.1923,0,0,0,0,0,-0.1941,-0.1954,-0.1945,-0.1944,-0.1934,-0.1933,-0.1931,-0.1916,-0.1906,-0.1911,-0.19,-0.1887,-0.1886,-0.1879,-0.1878,-0.1887,-0.1887,-0.1888,-0.189,-0.1915,-0.1919,-0.1923,0,0,0,0,0,0,-0.197,-0.1952,-0.1942,-0.195,-0.1943,-0.1928,-0.1934,-0.1922,-0.1918,-0.1916,-0.1897,-0.1895,-0.1901,-0.1894,-0.1886,-0.1899,-0.1884,-0.1886,-0.1904,-0.1908,-0.1911,-0.1913,-0.1865,0,0,0,0,0,-0.1978,-0.1978,-0.1961,-0.197,-0.1967,-0.1951,-0.195,-0.1939,-0.1931,-0.1928,-0.1918,-0.1911,-0.1908,-0.1908,-0.1905,-0.1915,-0.1911,-0.1921,-0.1924,-0.1927,-0.1929,-0.1933,-0.1937,-0.1896,-0.1896,-0.1896,0,0,-0.1993,-0.1983,-0.1984,-0.1976,-0.1969,-0.197,-0.1949,-0.1951,-0.1951,-0.1928,-0.1931,-0.1924,-0.1914,-0.1921,-0.1924,-0.1916,-0.1939,-0.1929,-0.1932,-0.1932,-0.1935,-0.1939,-0.1943,-0.1897,-0.1897,-0.1897,0,0,-0.2021,-0.2014,-0.202,-0.2013,-0.2003,-0.1992,-0.1993,-0.1979,-0.1973,-0.1976,-0.1959,-0.1958,-0.1955,-0.1949,-0.1946,-0.197,-0.1957,-0.1969,-0.1988,-0.1992,-0.1995,-0.1998,-0.2007,-0.201,-0.1971,-0.1971,-0.1971,0,-0.2042,-0.2042,-0.2025,-0.2027,-0.2024,-0.2003,-0.2009,-0.2003,-0.1993,-0.1991,-0.1982,-0.1976,-0.1969,-0.1974,-0.1979,-0.1977,-0.1978,-0.1971,-0.1996,-0.1999,-0.2001,-0.2009,-0.2012,-0.1972,-0.1972,-0.1972,-0.1972,0,-0.2068,-0.2068,-0.2074,-0.2064,-0.2061,-0.2065,-0.2049,-0.2048,-0.2036,-0.2026,-0.2029,-0.2018,-0.2013,-0.2013,-0.2002,-0.2016,-0.2011,-0.1999,-0.1984,-0.2007,-0.2014,-0.2017,-0.1975,-0.1974,-0.1974,-0.1973,0,0,-0.2115,-0.2094,-0.2097,-0.2092,-0.2078,-0.2078,-0.208,-0.2075,-0.2074,-0.2067,-0.2069,-0.2066,-0.2054,-0.205,-0.2038,-0.2042,-0.2061,-0.203,-0.2029,-0.2036,-0.2075,-0.2085,-0.2089,-0.2052,-0.2053,-0.2053,-0.2076,0,-0.2141,-0.2145,-0.2129,-0.2137,-0.2137,-0.2116,-0.2118,-0.211,-0.21,-0.2098,-0.2087,-0.2085,-0.207,-0.2067,-0.207,-0.2059,-0.2069,-0.2057,-0.2054,-0.2054,-0.2058,-0.2092,-0.2103,-0.2125,-0.2079,-0.2079,-0.208,0,-0.2173,-0.2167,-0.2175,-0.2159,-0.2159,-0.2161,-0.2154,-0.2152,-0.2142,-0.2134,-0.2129,-0.2115,-0.2116,-0.21,-0.2101,-0.2093,-0.2091,-0.2085,-0.2085,-0.2085,-0.2069,-0.2094,-0.2131,-0.2135,-0.2084,-0.2084,-0.2083,0,-0.2207,-0.2201,-0.2204,-0.2201,-0.2183,-0.2185,-0.2178,-0.2166,-0.2164,-0.2157,-0.2155,-0.2148,-0.2145,-0.214,-0.2124,-0.2115,-0.2127,-0.2111,-0.2121,-0.2121,-0.2126,-0.2126,-0.2164,-0.2123,-0.2123,-0.2123,-0.2123,0,-0.2238,-0.2244,-0.222,-0.2222,-0.2227,-0.2208,-0.2214,-0.2205,-0.2195,-0.2194,-0.2175,-0.2176,-0.2155,-0.2152,-0.214,-0.2142,-0.2141,-0.2135,-0.2132,-0.2137,-0.2138,-0.2136,-0.2134,-0.2124,-0.2124,-0.2123,-0.2123,0,-0.2278,-0.2262,-0.2265,-0.2247,-0.2243,-0.2248,-0.2232,-0.2234,-0.2222,-0.2222,-0.2221,-0.2202,-0.2198,-0.2182,-0.2174,-0.2166,-0.2172,-0.2166,-0.2176,-0.2174,-0.2185,-0.2185,-0.2225,-0.2229,-0.2185,-0.2185,-0.2186,0,-0.23,-0.2304,-0.2286,-0.2284,-0.2278,-0.2276,-0.2272,-0.2253,-0.225,-0.2238,-0.224,-0.2235,-0.2229,-0.2224,-0.221,-0.2203,-0.2197,-0.2211,-0.2196,-0.2201,-0.2197,-0.2197,-0.2198,-0.2215,-0.2215,-0.2216,-0.2216,0,-0.234,-0.2331,-0.2327,-0.232,-0.2316,-0.2309,-0.2301,-0.2301,-0.228,-0.2277,-0.2273,-0.2269,-0.226,-0.2255,-0.2246,-0.2238,-0.2223,-0.2221,-0.2223,-0.2229,-0.2235,-0.2232,-0.2186,-0.222,-0.222,-0.222,-0.2219,-0.2219,-0.2371,-0.2373,-0.2361,-0.2357,-0.2348,-0.2341,-0.2341,-0.2329,-0.2325,-0.2316,-0.2305,-0.2302,-0.229,-0.2276,-0.2269,-0.2266,-0.2258,-0.2261,-0.2262,-0.2263,-0.2266,-0.2234,-0.2264,-0.2264,-0.2264,-0.2264,-0.2264,0,-0.241,-0.2401,-0.2397,-0.2386,-0.2383,-0.2368,-0.2359,-0.2357,-0.2354,-0.2344,-0.2339,-0.2333,-0.2327,-0.2312,-0.2305,-0.2305,-0.2298,-0.2304,-0.2304,-0.2302,-0.2274,-0.2273,-0.2309,-0.2309,-0.2309,-0.2309,-0.2309,-0.2309,-0.243,-0.2433,-0.2423,-0.2421,-0.2411,-0.2408,-0.2403,-0.2396,-0.2388,-0.2383,-0.2378,-0.2367,-0.2355,-0.2346,-0.234,-0.2335,-0.2334,-0.2342,-0.2335,-0.2309,-0.2304,-0.23,-0.2299,-0.2341,-0.2341,-0.2364,-0.2364,-0.2364]},{"header":{"parameterUnit":"m.s-1","parameterCategory":1,"la1":30.2991,"la2":30.254,"lo1":-89.0895,"lo2":-89.0444,"dy":0.0017,"dx":0.0017,"nx":28,"ny":28,"refTime":"2026-02-16T09:00:00:Z","depth":0,"parameterNumber":3,"parameterNumberName":"V-component_of_WINDS"},"data":[0,0,0,0,0,0,0,0,0,0,0,0,0,0,0,0,0,0,0,0,0,0,0,0,0,0,0,0,0,0,0,0,0,0,0,0,0,0,0,0,0,0,0,0,0,0,0,0,0,0,0,0,0,0,0,0,0,0,-5.3963,-5.3964,0,-5.4049,-5.405,-5.4051,-5.3999,-5.3997,-5.3995,-5.3992,-5.4076,-5.408,-5.4084,0,0,0,0,0,0,0,0,0,0,0,0,0,-5.375,-5.3754,-5.3963,-5.3964,-5.3965,-5.4049,-5.405,-5.4051,-5.4,-5.3997,-5.3994,-5.3991,-5.4074,-5.4079,-5.4085,0,0,0,0,0,0,0,0,0,0,0,0,0,-5.384,-5.3756,-5.3963,-5.395,-5.395,-5.4049,-5.405,-5.4052,-5.4001,-5.3997,-5.3993,-5.399,-5.4072,-5.4079,-5.4086,-5.4201,0,0,-5.4106,-5.4109,0,0,0,0,0,0,0,0,-5.3835,-5.3848,-5.3951,-5.3951,-5.3951,-5.401,-5.4006,-5.4102,-5.4001,-5.3981,-5.3992,-5.3988,-5.4056,-5.4064,-5.4088,-5.4205,-5.4209,-5.4107,-5.4111,-5.4114,-5.4116,0,0,0,0,0,0,0,-5.3829,-5.3844,-5.3997,-5.3952,-5.3952,-5.3938,-5.3947,-5.4024,-5.4038,-5.3983,-5.3979,-5.399,-5.4056,-5.4082,-5.409,-5.421,-5.4107,-5.4113,-5.4117,-5.4119,-5.4426,-5.443,0,0,0,0,0,0,-5.3824,-5.3839,-5.3994,-5.4,-5.3883,-5.3945,-5.3955,-5.3995,-5.4037,-5.404,-5.3993,-5.3987,-5.4072,-5.4082,-5.4093,-5.4231,-5.4114,-5.412,-5.4124,-5.4422,-5.4427,-5.4432,0,0,0,0,0,0,-5.382,-5.3839,-5.3991,-5.3919,-5.3937,-5.3953,-5.3998,-5.3998,-5.4025,-5.4045,-5.4047,-5.4018,-5.407,-5.4083,-5.4175,-5.4234,-5.4123,-5.4129,-5.4418,-5.4424,-5.443,-5.451,0,0,0,0,0,0,-5.3814,-5.3837,-5.3882,-5.392,-5.3941,-5.4073,-5.4001,-5.4003,-5.4037,-5.403,-5.4069,-5.4072,-5.4068,-5.4165,-5.4182,-5.4241,-5.4135,-5.4412,-5.442,-5.4428,-5.4502,-5.4518,-5.4532,0,0,0,0,0,-5.3807,-5.39,-5.3885,-5.3904,-5.3998,-5.4077,-5.4089,-5.4084,-5.4042,-5.4087,-5.41,-5.407,-5.4225,-5.4175,-5.4193,-5.4255,-5.4409,-5.4418,-5.4427,-5.4495,-5.4515,-5.4531,0,0,0,0,0,0,-5.3867,-5.3905,-5.3888,-5.3997,-5.4035,-5.4068,-5.4124,-5.4104,-5.4153,-5.4144,-5.4134,-5.4144,-5.424,-5.4256,-5.4201,-5.437,-5.431,-5.4323,-5.4356,-5.4374,-5.4389,-5.4383,-5.414,0,0,0,0,0,-5.3893,-5.3956,-5.3985,-5.4078,-5.4098,-5.4108,-5.4142,-5.4136,-5.4173,-5.4188,-5.4208,-5.4244,-5.4301,-5.4338,-5.4391,-5.4504,-5.4512,-5.4556,-5.457,-5.4582,-5.4594,-5.4655,-5.4675,-5.4462,-5.4462,-5.4462,0,0,-5.3948,-5.3976,-5.4016,-5.4091,-5.4119,-5.4183,-5.4122,-5.4192,-5.4239,-5.4198,-5.4287,-5.4303,-5.4343,-5.4446,-5.4492,-5.4463,-5.4655,-5.4594,-5.4604,-5.4609,-5.4667,-5.4687,-5.4705,-5.4468,-5.4467,-5.4466,0,0,-5.408,-5.4108,-5.4189,-5.4219,-5.4263,-5.4269,-5.4289,-5.4326,-5.4336,-5.4425,-5.4397,-5.4451,-5.4549,-5.4579,-5.4607,-5.4752,-5.4726,-5.4769,-5.4846,-5.4906,-5.4923,-5.4938,-5.499,-5.5008,-5.4781,-5.4781,-5.4781,0,-5.4141,-5.4238,-5.4233,-5.4306,-5.434,-5.4308,-5.439,-5.4418,-5.4477,-5.45,-5.4467,-5.459,-5.4614,-5.4724,-5.476,-5.4783,-5.4805,-5.4765,-5.4921,-5.4936,-5.495,-5.4999,-5.5019,-5.4786,-5.4785,-5.4785,-5.4784,0,-5.4312,-5.4379,-5.4439,-5.4499,-5.454,-5.4617,-5.4622,-5.4663,-5.4653,-5.4663,-5.4754,-5.4783,-5.4842,-5.4867,-5.4857,-5.4976,-5.4956,-5.4923,-5.4862,-5.4975,-5.5021,-5.504,-5.4793,-5.4791,-5.479,-5.4788,0,0,-5.4483,-5.4541,-5.4563,-5.459,-5.4637,-5.4688,-5.4764,-5.4823,-5.4859,-5.49,-5.4963,-5.5047,-5.5016,-5.5048,-5.5041,-5.5093,-5.5207,-5.5053,-5.5054,-5.5081,-5.534,-5.5366,-5.5388,-5.519,-5.5194,-5.5197,-5.5337,0,-5.4619,-5.4752,-5.475,-5.4874,-5.4936,-5.4907,-5.4973,-5.5008,-5.5019,-5.5073,-5.5084,-5.5144,-5.5099,-5.5118,-5.5169,-5.5183,-5.5259,-5.5172,-5.5248,-5.525,-5.5239,-5.5412,-5.5439,-5.557,-5.5355,-5.5358,-5.536,0,-5.4794,-5.4844,-5.4974,-5.5013,-5.5039,-5.5099,-5.5153,-5.5205,-5.5244,-5.5249,-5.5285,-5.527,-5.5346,-5.5284,-5.5387,-5.5328,-5.5359,-5.537,-5.5375,-5.5382,-5.5312,-5.5424,-5.5611,-5.5631,-5.5388,-5.5386,-5.5384,0,-5.4907,-5.5006,-5.5098,-5.5122,-5.5169,-5.5212,-5.5233,-5.5269,-5.5305,-5.5352,-5.5375,-5.543,-5.546,-5.5502,-5.5502,-5.5457,-5.5607,-5.5545,-5.5612,-5.5612,-5.5645,-5.5643,-5.5841,-5.5665,-5.5664,-5.5664,-5.5663,0,-5.5058,-5.5139,-5.5149,-5.5205,-5.5295,-5.5292,-5.538,-5.5397,-5.5429,-5.5487,-5.5465,-5.5519,-5.5516,-5.5571,-5.5571,-5.5657,-5.567,-5.5675,-5.5674,-5.5678,-5.5677,-5.5697,-5.5688,-5.5669,-5.5668,-5.5667,-5.5666,0,-5.5199,-5.5209,-5.5307,-5.5345,-5.5356,-5.5421,-5.5452,-5.5505,-5.5515,-5.5589,-5.5605,-5.562,-5.5684,-5.5688,-5.5761,-5.5761,-5.5865,-5.5854,-5.5853,-5.5851,-5.5919,-5.5912,-5.6136,-5.6166,-5.597,-5.5972,-5.5974,0,-5.5295,-5.5357,-5.5403,-5.5441,-5.5466,-5.5527,-5.5565,-5.5564,-5.5603,-5.5654,-5.57,-5.5762,-5.5812,-5.5915,-5.5931,-5.5986,-5.5976,-5.6051,-5.5984,-5.5986,-5.5978,-5.5975,-5.5981,-5.6064,-5.6066,-5.6068,-5.6069,0,-5.5465,-5.5468,-5.5523,-5.5582,-5.5628,-5.5673,-5.5715,-5.5747,-5.5751,-5.5797,-5.5863,-5.5902,-5.5977,-5.6039,-5.6093,-5.6113,-5.6092,-5.6091,-5.6109,-5.6113,-5.611,-5.6113,-5.5889,-5.6085,-5.6084,-5.6082,-5.6082,-5.6081,-5.5587,-5.5641,-5.5682,-5.5745,-5.5778,-5.5818,-5.587,-5.5887,-5.5943,-5.6006,-5.6001,-5.6074,-5.6112,-5.6183,-5.6208,-5.6264,-5.6239,-5.6266,-5.6272,-5.6279,-5.6287,-5.6101,-5.6274,-5.6274,-5.6273,-5.6273,-5.6272,0,-5.5756,-5.5781,-5.584,-5.5901,-5.5951,-5.5928,-5.5974,-5.6017,-5.6082,-5.612,-5.617,-5.6246,-5.6306,-5.6327,-5.6385,-5.6426,-5.6418,-5.6442,-5.6439,-5.6444,-5.6306,-5.6284,-5.6447,-5.6447,-5.6447,-5.6447,-5.6447,-5.6447,-5.585,-5.5941,-5.5948,-5.6054,-5.6078,-5.6152,-5.618,-5.6217,-5.6247,-5.6334,-5.6385,-5.6399,-5.643,-5.6491,-5.6544,-5.6549,-5.6571,-5.6599,-5.66,-5.6471,-5.6453,-5.6436,-5.6416,-5.6604,-5.6604,-5.6733,-5.6734,-5.6735]}]]